Regional Weather Roundup
Issued by NWS Kansas City/Pleasant Hill, MO

Home | Current Version | Previous Version | Graphics & Text | Print | Product List | Glossary Off
Versions: 1 2 3 4 5 6 7 8 9 10 11 12 13 14 15 16 17 18 19 20 21 22 23 24 25 26 27 28 29 30 31 32 33 34 35 36 37 38 39 40 41 42 43 44 45 46 47 48 49 50

000
ASUS43 KEAX 011610
RWREAX

WEATHER ROUNDUP FOR EASTERN KANSAS AND NORTHWEST MISSOURI
NATIONAL WEATHER SERVICE KANSAS CITY/PLEASANT HILL MO
1100 AM CDT MON SEP 01 2014

KSZ040-057-103>105-MOZ028-029-037-043-011700-
...KANSAS CITY METROPOLITAN AREA...

CITY           SKY/WX    TMP DP  RH WIND       PRES   REMARKS
K.C. INTL      MOSUNNY   73  67  81 SW15      29.89R
K.C. DOWNTOWN  MOSUNNY   75  65  70 W12       29.88R
LEES SUMMIT    NOT AVBL
OLATHE - IXD   MOSUNNY   73  65  75 W12       29.90R
OLATHE - OJC   MOSUNNY   73  65  75 W10G17    29.89R
LAWRENCE       MOSUNNY  N/A N/A N/A SW9       29.90R

$$

MOZ001>008-011>017-020>025-030>033-038>040-044>046-053-054-011700-
...NORTHERN AND CENTRAL MISSOURI...

CITY           SKY/WX    TMP DP  RH WIND       PRES   REMARKS
ST. JOSEPH     PTSUNNY   73  66  78 W13       29.87R
MOSBY          PTSUNNY   72  64  78 SW12      29.88R
WHITEMAN AFB   CLOUDY    71  65  80 SW16      29.89R
CLINTON        CLOUDY    70  66  88 S7        29.90S
SEDALIA        CLOUDY    72  63  73 SW20G29   29.90R
WARSAW         NOT AVBL
MARSHALL       CLOUDY    75  68  78 SW12G21   29.89F
CHILLICOTHE      N/A     72  65  78 SW10G18   29.87S
MOBERLY        CLOUDY    72  63  73 W20G26    29.89R
KIRKSVILLE     CLOUDY    72  64  76 W16G26    29.87R

$$

MOZ041-047>049-056>058-063>065-088>090-097-011700-
...EASTERN AND SOUTHERN MISSOURI...

CITY           SKY/WX    TMP DP  RH WIND       PRES   REMARKS
ST. LOUIS INTL CLOUDY    79  65  62 SW20G26   29.86R
SPIRIT OF STL  CLOUDY    75  64  68 SW8       29.85R
COLUMBIA       CLOUDY    71  65  81 W12       29.88R
JEFFERSON CITY CLOUDY    73  64  73 W10       29.88R
MEXICO         CLOUDY    73  68  83 W14G21    29.88R
ROLLA          LGT RAIN  68  65  90 S18G28    29.85F
LEBANON        CLOUDY    68  64  88 S18       29.97F
OSAGE BEACH    CLOUDY    70  64  83 SW5       29.90R
SPRINGFIELD    CLOUDY    67  65  93 S17       29.99S
BRANSON        CLOUDY    66  64  94 SE6       30.09R
NEVADA         CLOUDY    68  66  94 S13       29.92R
JOPLIN         CLOUDY    73  64  73 SE15G23   29.95F
WEST PLAINS    LGT RAIN  70  65  84 N3        30.08R

$$

IAZ060-094-KSZ022-034>040-054-083-096-NEZ052-066-093-011700-
...KANSAS...SOUTHEAST NEBRASKA AND IOWA...

CITY           SKY/WX    TMP DP  RH WIND       PRES   REMARKS
TOPEKA         MOSUNNY   77  66  68 W10       29.91R
MANHATTAN      SUNNY     74  66  76 SW8       29.91R
EMPORIA        PTSUNNY   72  65  78 S17       29.92S
CHANUTE        MOSUNNY   74  64  71 S16       29.91S
WICHITA        CLOUDY    77  63  61 SE18G24   29.88S
OMAHA          MOSUNNY   73  61  65 NW10      29.86R
LINCOLN        SUNNY     73  61  65 VRB3      29.89R
FALLS CITY     MOSUNNY   76  66  71 NW10      29.87R
LAMONI         PTSUNNY   72  65  78 W17       29.85S
DES MOINES     PTSUNNY   75  65  70 W16       29.79R

$$



USA.gov is the U.S. government's official web portal to all federal, state and local government web resources and services.